Regional Weather Roundup
Issued by NWS Green Bay, WI

Home | Current Version | Previous Version | Graphics & Text | Print | Product List | Glossary Off
Versions: 1 2 3 4 5 6 7 8 9 10 11 12 13 14 15 16 17 18 19 20 21 22 23 24 25 26 27 28 29 30 31 32 33 34 35 36 37 38 39 40 41 42 43 44 45 46 47 48 49 50

000
ASUS43 KGRB 270310
RWRGRB

NORTH-CENTRAL AND NORTHEAST WISCONSIN REGIONAL WEATHER ROUNDUP
NATIONAL WEATHER SERVICE GREEN BAY WI
900 PM CST FRI DEC 26 2014

WIZ005-009-010>012-018-019-270400-
NORTH CENTRAL WISCONSIN

CITY           SKY/WX    TMP DP  RH WIND       PRES   REMARKS
IRONWOOD       CLOUDY    28  27  93 CALM      30.03R
MANITOWISH WTR CLOUDY    29  29 100 N3        30.03R
ARBOR VITAE    CLOUDY    32  30  94 CALM      30.03R
EAGLE RIVER    LGT SNOW  29  29 100 CALM      30.02R
LAND O LAKES   CLOUDY    31  30  96 CALM      30.03R
RHINELANDER    LGT SNOW  29  28  96 NE3       30.02R FOG
PHILLIPS       LGT SNOW  29  28  96 N5        30.03R
ANTIGO         CLOUDY    31  31 100 NE8       30.01S FOG
TOMAHAWK       CLOUDY    30  28  93 CALM      30.03R
MERRILL        CLOUDY    32  32  99 NE3       30.02S FOG
$$

WIZ013-073-270400-
NORTHEAST WISCONSIN

CITY           SKY/WX    TMP DP  RH WIND       PRES   REMARKS
IRON MOUNTAIN  CLOUDY    31  29  92 N3        30.02R FOG
MARINETTE      MOCLDY    34  30  86 NE7       30.03S
OCONTO         CLOUDY    34  34 100 CALM      30.04S
$$

WIZ017-030-035>037-045-270400-
CENTRAL WISCONSIN

CITY           SKY/WX    TMP DP  RH WIND       PRES   REMARKS
MEDFORD        CLOUDY    31  29  92 NE6       30.01S
WAUSAU         CLOUDY    34  32  92 CALM      30.00R FOG
MOSINEE        CLOUDY    34  34 100 E5        30.02R FOG
MARSHFIELD     CLOUDY    34  32  92 NE3       30.00S FOG
WISC RAPIDS    CLOUDY    34  30  85 E6        30.02S
STEVENS POINT  CLOUDY    31  31  99 CALM      30.02R FOG
WAUPACA        CLOUDY    34  33  96 CALM      30.03S FOG
SHAWANO        FOG       35  34  96 NE3       30.04R VSB<1/4
CLINTONVILLE   FOG       32  32 100 CALM      30.03S VSB 1/2
$$

WIZ038-039-048-051-270400-
FOX VALLEY

CITY           SKY/WX    TMP DP  RH WIND       PRES   REMARKS
NWS GREEN BAY  CLOUDY    35  33  92 MISG      30.03S FOG
APPLETON       CLOUDY    34  34 100 NE6       30.01F FOG
OSHKOSH        MOCLDY    35  32  88 NE5       30.01S FOG
FOND DU LAC    MOCLDY    34  31  88 CALM      30.01S FOG
$$

WIZ022-050-052-270400-
EAST CENTRAL WISCONSIN

CITY           SKY/WX    TMP DP  RH WIND       PRES   REMARKS
STURGEON BAY   CLOUDY    36  34  93 CALM      30.05R
MANITOWOC      CLOUDY    35  34  96 CALM      30.03S
SHEBOYGAN      PTCLDY    32  30  92 CALM      30.01F
$$

LMZ563-521-522-541>543-270400-
LAKESHORE

STATION/POSITION TIME  TEMP    WIND        PRES    VSBY  WAVE
                       AIR SEA DIR/SP/G                  HT/PER
                 (UTC) (F)     (DEG/KT/KT) (MB)    (MI)  (FT/S)
SHEBOYGAN LKSHOR 0300   41 39  310/  1/  1 1017.1F
KEWAUNEE LKSHORE 0300   37      30/  7/  9 1016.0S
NORTHPORT PIER   0300   35      60/  2/  4 1017.3S
SISTER BAY LKSHO 0300          120/  4/  7   N/A
CHAMBERS ISLAND  0300   35      30/  8/ 10 1017.3S
MENOMINEE LKSHOR 0300   34      20/  9/ 10 1017.8R
$$



USA.gov is the U.S. government's official web portal to all federal, state and local government web resources and services.